EW9551 Weather Reports


Display with metric or nautical units.
time (UTC)temp
F
wind
direction
speed
MPH
gust
MPH
rain 1hr
in
rain 24hr
in
rain mn
in
humidity
%
barometer
mb
20260510032339 55 207 0.0 1.0 0.01 0.06 0.06 91 972.1
20260510020933 57 207 0.0 3.0 0.05 0.05 0.05 89 972.0
20260510013930 58 0 0.0 1.0 0.01 0.01 0.01 86 971.7
20260510012321 59 0 0.0 3.0 0.00 0.00 0.00 82 971.2
20260510003931 60 0 0.0 7.0 0.00 0.00 0.00 79 970.9
20260510000932 60 250 0.0 1.0 0.00 0.00 0.00 76 971.0
20260509233933 61 0 0.0 0.0 0.00 0.00 0.00 73 971.2
20260509230932 61 0 0.0 0.0 0.00 0.00 0.00 71 971.3
20260509225306 62 200 0.0 0.0 0.00 0.00 0.00 70 971.4
20260509220926 62 200 0.0 0.0 0.00 0.00 0.00 69 971.5
20260509213926 63 0 0.0 0.0 0.00 0.00 0.00 67 971.5
20260509210918 64 0 0.0 0.0 0.00 0.00 0.00 66 971.4
20260509203919 64 0 0.0 1.0 0.00 0.00 0.00 66 971.5
20260509200921 65 175 0.0 3.0 0.00 0.00 0.00 65 971.4
20260509193917 66 0 0.0 0.0 0.00 0.00 0.00 63 971.3
20260509190916 67 0 0.0 0.0 0.00 0.00 0.00 61 971.2
20260509185301 68 0 0.0 0.0 0.00 0.00 0.00 63 971.2
20260509180915 69 172 0.0 0.0 0.00 0.00 0.00 61 971.1
20260509173915 71 157 0.0 0.0 0.00 0.00 0.00 59 970.9
20260509170914 71 0 0.0 0.0 0.00 0.00 0.00 57 970.8
20260509163911 71 0 0.0 0.0 0.00 0.00 0.00 56 971.1
20260509160908 72 0 0.0 4.0 0.00 0.00 0.00 55 971.3
20260509153910 74 0 0.0 4.0 0.00 0.00 0.00 53 971.4
20260509150907 75 182 0.0 9.0 0.00 0.00 0.00 50 971.5
20260509143905 75 0 0.0 13.0 0.00 0.00 0.00 50 971.9
20260509140903 75 186 0.0 9.0 0.00 0.00 0.00 51 972.2
20260509133903 76 142 0.0 6.0 0.00 0.00 0.00 48 972.2
20260509130904 76 134 0.0 8.0 0.00 0.00 0.00 50 972.5
20260509123903 76 0 0.0 6.0 0.00 0.00 0.00 51 973.0
20260509120903 75 255 0.0 10.0 0.00 0.00 0.00 49 972.9
20260509115253 75 0 0.0 3.0 0.00 0.00 0.00 48 973.4
20260509110859 74 227 0.0 12.0 0.00 0.00 0.00 49 973.7
20260509103858 74 0 0.0 8.0 0.00 0.00 0.00 52 974.0
20260509100857 74 0 0.0 8.0 0.00 0.00 0.00 54 974.4
20260509093900 73 196 0.0 7.0 0.00 0.00 0.00 56 974.6
20260509092257 71 164 0.0 6.0 0.00 0.00 0.00 59 974.6
20260509085238 69 208 0.0 3.0 0.00 0.00 0.00 58 974.9
20260509080845 67 239 0.0 4.0 0.00 0.00 0.00 58 975.2
20260509073839 66 232 0.0 3.0 0.00 0.00 0.00 60 975.4
20260509070840 64 178 0.0 0.0 0.00 0.00 0.00 65 975.3
20260509063840 60 185 0.0 0.0 0.00 0.00 0.00 72 975.3
20260509060833 57 154 0.0 0.0 0.00 0.00 0.00 76 975.3
20260509053835 56 188 0.0 0.0 0.00 0.00 0.00 77 975.0
20260509050835 55 178 0.0 1.0 0.00 0.00 0.00 76 975.0
20260509043833 56 203 0.0 1.0 0.00 0.00 0.00 76 974.8
20260509040833 56 176 0.0 2.0 0.00 0.00 0.00 75 974.6
20260509035222 56 174 0.0 5.0 0.00 0.00 0.00 74 974.8